Radio RS-3

operational
NORAD ID: 12997 Int'l Des: 1981-120 Owner: NPOPM/MAIO Country: SU
LEOCIRCULARPOLAR

About Radio RS-3

Description loading...

Live Position

Loading 3D Globe...

Upcoming Passes

Altitude History

Altitude vs Time

uPlot chart will show altitude changes over time

Two-Line Element Set

1 12997U 81120A 26062.23229667 .00000013 00000-0 29862-4 0 9998
2 12997 82.9640 323.0645 0058857 126.6494 351.9266 12.15869588961828
Epoch: Mar 3, 2026 • Age: 20 hours

Current Status

Altitude 1679.1 km
Velocity 7.01 km/s
Sub-Earth Point -55.76°S, 155.52°W
Launch Date Dec 17, 1981
Age 44.2 years
Type other

Technical Details

Classification Payload
Mass 70.00 kg
Dry Mass 70.00 kg
Total Mass 70.00 kg
Length 0.80 m
Diameter 0.80 m
Span 0.80 m
Shape Poly
Manufacturer NPOPM/MAIO
Bus Type Strela-1M
Phase Status In Orbit
Owner/State NPOPM/MAIO/SU

Large Constellations

Loading constellations...